Time,TemperatureF,DewpointF,PressureIn,WindDirection,WindDirectionDegrees,WindSpeedMPH,WindSpeedGustMPH,Humidity,HourlyPrecipIn,Conditions,Clouds,dailyrainin,SoftwareType,DateUTC
2013-05-29 00:02:00,75.0,61.0,-100.00,SW,215,6.0,9.0,62,-99.99,,,-99.99,,2013-05-29 05:02:00,
2013-05-29 00:12:00,75.0,61.0,-100.00,SW,215,6.0,9.0,62,-99.99,,,-99.99,,2013-05-29 05:12:00,
2013-05-29 00:22:00,75.0,61.0,-100.00,SW,215,6.0,9.0,62,-99.99,,,-99.99,,2013-05-29 05:22:00,
2013-05-29 00:32:00,74.0,61.0,-100.00,SW,230,2.0,4.0,63,-99.99,,,-99.99,,2013-05-29 05:32:00,
2013-05-29 00:42:00,74.0,61.0,-100.00,SW,225,0.0,1.0,64,-99.99,,,-99.99,,2013-05-29 05:42:00,
2013-05-29 00:52:00,74.0,61.0,-100.00,SW,225,0.0,1.0,64,-99.99,,,-99.99,,2013-05-29 05:52:00,
2013-05-29 01:01:00,74.0,61.0,-100.00,South,190,0.0,0.0,66,-99.99,,,-99.99,,2013-05-29 06:01:00,
2013-05-29 01:12:00,73.0,62.0,-100.00,NNW,335,3.0,3.0,68,-99.99,,,-99.99,,2013-05-29 06:12:00,
2013-05-29 01:21:00,73.0,62.0,-100.00,NNW,335,3.0,3.0,68,-99.99,,,-99.99,,2013-05-29 06:21:00,
2013-05-29 01:32:00,73.0,62.0,-100.00,NNW,335,3.0,3.0,68,-99.99,,,-99.99,,2013-05-29 06:32:00,
2013-05-29 01:42:00,71.0,63.0,-100.00,North,350,1.0,2.0,75,-99.99,,,-99.99,,2013-05-29 06:42:00,
2013-05-29 01:52:00,71.0,63.0,-100.00,North,350,1.0,2.0,75,-99.99,,,-99.99,,2013-05-29 06:52:00,
2013-05-29 02:01:00,70.0,64.0,-100.00,NNW,335,4.0,4.0,80,-99.99,,,-99.99,,2013-05-29 07:01:00,
2013-05-29 02:11:00,70.0,64.0,-100.00,NNW,335,4.0,4.0,80,-99.99,,,-99.99,,2013-05-29 07:11:00,
2013-05-29 02:21:00,70.0,64.0,-100.00,NNW,335,4.0,4.0,80,-99.99,,,-99.99,,2013-05-29 07:21:00,
2013-05-29 02:34:00,71.0,64.0,-100.00,South,185,4.0,4.0,81,-99.99,,,-99.99,,2013-05-29 07:34:00,
2013-05-29 02:42:00,70.0,64.0,-100.00,NW,315,3.0,3.0,82,-99.99,,,-99.99,,2013-05-29 07:42:00,
2013-05-29 02:52:00,70.0,64.0,-100.00,NW,315,3.0,3.0,82,-99.99,,,-99.99,,2013-05-29 07:52:00,
2013-05-29 03:02:00,70.0,64.0,-100.00,North,0,4.0,6.0,82,-99.99,,,-99.99,,2013-05-29 08:02:00,
2013-05-29 03:11:00,70.0,64.0,-100.00,North,0,4.0,6.0,82,-99.99,,,-99.99,,2013-05-29 08:11:00,
2013-05-29 03:22:00,70.0,64.0,-100.00,North,0,4.0,6.0,82,-99.99,,,-99.99,,2013-05-29 08:22:00,
2013-05-29 03:32:00,69.0,62.0,-100.00,NNE,15,4.0,6.0,77,-99.99,,,-99.99,,2013-05-29 08:32:00,
2013-05-29 03:42:00,69.0,62.0,-100.00,NNE,20,2.0,3.0,77,-99.99,,,-99.99,,2013-05-29 08:42:00,
2013-05-29 03:52:00,69.0,62.0,-100.00,NNE,20,2.0,3.0,77,-99.99,,,-99.99,,2013-05-29 08:52:00,
2013-05-29 04:01:00,68.0,61.0,-100.00,ESE,115,2.0,2.0,79,-99.99,,,-99.99,,2013-05-29 09:01:00,
2013-05-29 04:11:00,68.0,61.0,-100.00,East,95,1.0,1.0,79,-99.99,,,-99.99,,2013-05-29 09:11:00,
2013-05-29 04:21:00,68.0,61.0,-100.00,East,95,1.0,1.0,79,-99.99,,,-99.99,,2013-05-29 09:21:00,
2013-05-29 04:33:00,68.0,61.0,-100.00,East,95,0.0,0.0,80,-99.99,,,-99.99,,2013-05-29 09:33:00,
2013-05-29 04:42:00,67.0,61.0,-100.00,SE,145,1.0,1.0,82,-99.99,,,-99.99,,2013-05-29 09:42:00,
2013-05-29 04:52:00,67.0,61.0,-100.00,SE,145,1.0,1.0,82,-99.99,,,-99.99,,2013-05-29 09:52:00,
2013-05-29 05:03:00,67.0,61.0,-100.00,SE,145,2.0,3.0,83,-99.99,,,-99.99,,2013-05-29 10:03:00,
2013-05-29 05:12:00,67.0,62.0,-100.00,SE,130,0.0,1.0,83,-99.99,,,-99.99,,2013-05-29 10:12:00,
2013-05-29 05:22:00,67.0,62.0,-100.00,SE,130,0.0,1.0,83,-99.99,,,-99.99,,2013-05-29 10:22:00,
2013-05-29 05:32:00,66.0,61.0,-100.00,South,185,0.0,1.0,85,-99.99,,,-99.99,,2013-05-29 10:32:00,
2013-05-29 05:42:00,65.0,62.0,-100.00,SE,135,0.0,0.0,88,-99.99,,,-99.99,,2013-05-29 10:42:00,
2013-05-29 05:53:00,65.0,62.0,-100.00,SE,135,0.0,0.0,88,-99.99,,,-99.99,,2013-05-29 10:53:00,
2013-05-29 06:02:00,65.0,63.0,-100.00,SE,145,2.0,2.0,91,-99.99,,,-99.99,,2013-05-29 11:02:00,
2013-05-29 06:12:00,65.0,63.0,-100.00,SE,130,2.0,3.0,92,-99.99,,,-99.99,,2013-05-29 11:12:00,
2013-05-29 06:22:00,65.0,63.0,-100.00,SE,130,2.0,3.0,92,-99.99,,,-99.99,,2013-05-29 11:22:00,
2013-05-29 06:32:00,66.0,64.0,-100.00,SE,145,6.0,8.0,93,-99.99,,,-99.99,,2013-05-29 11:32:00,
2013-05-29 06:42:00,67.0,64.0,-100.00,SE,140,8.0,12.0,90,-99.99,,,-99.99,,2013-05-29 11:42:00,
2013-05-29 06:52:00,67.0,64.0,-100.00,SE,140,8.0,12.0,90,-99.99,,,-99.99,,2013-05-29 11:52:00,
2013-05-29 07:01:00,68.0,62.0,-100.00,SSE,155,6.0,9.0,82,-99.99,,,-99.99,,2013-05-29 12:01:00,
2013-05-29 07:11:00,69.0,62.0,-100.00,SE,140,3.0,4.0,78,-99.99,,,-99.99,,2013-05-29 12:11:00,
2013-05-29 07:22:00,69.0,62.0,-100.00,SE,140,3.0,4.0,78,-99.99,,,-99.99,,2013-05-29 12:22:00,
2013-05-29 07:32:00,69.0,61.0,-100.00,SSE,155,6.0,9.0,75,-99.99,,,-99.99,,2013-05-29 12:32:00,
2013-05-29 07:42:00,71.0,61.0,-100.00,South,185,6.0,8.0,72,-99.99,,,-99.99,,2013-05-29 12:42:00,
2013-05-29 07:52:00,71.0,61.0,-100.00,South,185,6.0,8.0,72,-99.99,,,-99.99,,2013-05-29 12:52:00,
2013-05-29 08:02:00,71.0,61.0,-100.00,South,190,4.0,8.0,71,-99.99,,,-99.99,,2013-05-29 13:02:00,
2013-05-29 08:11:00,71.0,61.0,-100.00,South,185,4.0,6.0,71,-99.99,,,-99.99,,2013-05-29 13:11:00,
2013-05-29 08:21:00,71.0,61.0,-100.00,South,185,4.0,6.0,71,-99.99,,,-99.99,,2013-05-29 13:21:00,
2013-05-29 08:32:00,73.0,63.0,-100.00,South,170,6.0,9.0,70,-99.99,,,-99.99,,2013-05-29 13:32:00,
2013-05-29 08:42:00,74.0,62.0,-100.00,South,190,6.0,6.0,68,-99.99,,,-99.99,,2013-05-29 13:42:00,
2013-05-29 08:53:00,74.0,62.0,-100.00,South,190,6.0,6.0,68,-99.99,,,-99.99,,2013-05-29 13:53:00,
2013-05-29 09:02:00,74.0,63.0,-100.00,SSE,165,6.0,6.0,68,-99.99,,,-99.99,,2013-05-29 14:02:00,
2013-05-29 09:11:00,75.0,64.0,-100.00,SE,130,3.0,4.0,68,-99.99,,,-99.99,,2013-05-29 14:11:00,
2013-05-29 09:21:00,75.0,64.0,-100.00,SE,130,3.0,4.0,68,-99.99,,,-99.99,,2013-05-29 14:21:00,
2013-05-29 09:32:00,77.0,65.0,-100.00,South,185,4.0,8.0,66,-99.99,,,-99.99,,2013-05-29 14:32:00,
2013-05-29 09:42:00,77.0,65.0,-100.00,SSW,205,12.0,17.0,65,-99.99,,,-99.99,,2013-05-29 14:42:00,
2013-05-29 09:52:00,77.0,65.0,-100.00,SSW,205,12.0,17.0,65,-99.99,,,-99.99,,2013-05-29 14:52:00,
2013-05-29 10:01:00,78.0,65.0,-100.00,South,170,10.0,16.0,65,-99.99,,,-99.99,,2013-05-29 15:01:00,
2013-05-29 10:11:00,78.0,65.0,-100.00,South,170,10.0,16.0,65,-99.99,,,-99.99,,2013-05-29 15:11:00,
2013-05-29 10:21:00,78.0,65.0,-100.00,South,170,10.0,16.0,65,-99.99,,,-99.99,,2013-05-29 15:21:00,
2013-05-29 10:33:00,79.0,65.0,-100.00,SSW,200,12.0,16.0,62,-99.99,,,-99.99,,2013-05-29 15:33:00,
2013-05-29 10:42:00,79.0,65.0,-100.00,South,180,14.0,21.0,63,-99.99,,,-99.99,,2013-05-29 15:42:00,
2013-05-29 10:53:00,79.0,65.0,-100.00,South,180,14.0,21.0,63,-99.99,,,-99.99,,2013-05-29 15:53:00,
2013-05-29 11:03:00,80.0,66.0,-100.00,SSW,200,14.0,21.0,61,-99.99,,,-99.99,,2013-05-29 16:03:00,
2013-05-29 11:12:00,81.0,66.0,-100.00,South,190,11.0,14.0,61,-99.99,,,-99.99,,2013-05-29 16:12:00,
2013-05-29 11:22:00,81.0,66.0,-100.00,South,190,11.0,14.0,61,-99.99,,,-99.99,,2013-05-29 16:22:00,
2013-05-29 11:32:00,81.0,66.0,-100.00,South,170,14.0,18.0,59,-99.99,,,-99.99,,2013-05-29 16:32:00,
2013-05-29 11:42:00,82.0,67.0,-100.00,SSE,160,6.0,10.0,60,-99.99,,,-99.99,,2013-05-29 16:42:00,
2013-05-29 11:52:00,82.0,67.0,-100.00,SSE,160,6.0,10.0,60,-99.99,,,-99.99,,2013-05-29 16:52:00,
2013-05-29 12:02:00,82.0,66.0,-100.00,South,190,12.0,21.0,59,-99.99,,,-99.99,,2013-05-29 17:02:00,
2013-05-29 12:12:00,83.0,67.0,-100.00,South,185,10.0,14.0,58,-99.99,,,-99.99,,2013-05-29 17:12:00,
2013-05-29 12:22:00,83.0,67.0,-100.00,South,185,10.0,14.0,58,-99.99,,,-99.99,,2013-05-29 17:22:00,
2013-05-29 12:32:00,84.0,67.0,-100.00,South,170,12.0,16.0,58,-99.99,,,-99.99,,2013-05-29 17:32:00,
2013-05-29 12:42:00,83.0,67.0,-100.00,South,170,4.0,10.0,57,-99.99,,,-99.99,,2013-05-29 17:42:00,
2013-05-29 12:52:00,83.0,67.0,-100.00,South,170,4.0,10.0,57,-99.99,,,-99.99,,2013-05-29 17:52:00,
2013-05-29 13:01:00,84.0,66.0,-100.00,SSE,155,12.0,16.0,55,-99.99,,,-99.99,,2013-05-29 18:01:00,
2013-05-29 13:13:00,84.0,66.0,-100.00,SSW,210,6.0,10.0,54,-99.99,,,-99.99,,2013-05-29 18:13:00,
2013-05-29 13:22:00,84.0,66.0,-100.00,SSW,210,6.0,10.0,54,-99.99,,,-99.99,,2013-05-29 18:22:00,
2013-05-29 13:32:00,84.0,65.0,-100.00,South,185,10.0,17.0,53,-99.99,,,-99.99,,2013-05-29 18:32:00,
2013-05-29 13:42:00,84.0,65.0,-100.00,SSW,200,10.0,17.0,53,-99.99,,,-99.99,,2013-05-29 18:42:00,
2013-05-29 13:52:00,84.0,65.0,-100.00,SSW,200,10.0,17.0,53,-99.99,,,-99.99,,2013-05-29 18:52:00,
2013-05-29 14:02:00,83.0,65.0,-100.00,South,170,10.0,14.0,54,-99.99,,,-99.99,,2013-05-29 19:02:00,
2013-05-29 14:11:00,83.0,65.0,-100.00,South,190,11.0,14.0,54,-99.99,,,-99.99,,2013-05-29 19:11:00,
2013-05-29 14:21:00,83.0,65.0,-100.00,South,190,11.0,14.0,54,-99.99,,,-99.99,,2013-05-29 19:21:00,
2013-05-29 14:32:00,84.0,65.0,-100.00,SSE,150,9.0,12.0,52,-99.99,,,-99.99,,2013-05-29 19:32:00,
2013-05-29 14:44:00,84.0,65.0,-100.00,South,175,12.0,16.0,53,-99.99,,,-99.99,,2013-05-29 19:44:00,
2013-05-29 14:53:00,84.0,65.0,-100.00,South,175,12.0,16.0,53,-99.99,,,-99.99,,2013-05-29 19:53:00,
2013-05-29 15:03:00,84.0,65.0,-100.00,South,170,9.0,14.0,54,-99.99,,,-99.99,,2013-05-29 20:03:00,
2013-05-29 15:11:00,84.0,65.0,-100.00,SE,145,10.0,16.0,53,-99.99,,,-99.99,,2013-05-29 20:11:00,
2013-05-29 15:22:00,84.0,65.0,-100.00,SE,145,10.0,16.0,53,-99.99,,,-99.99,,2013-05-29 20:22:00,
2013-05-29 15:33:00,84.0,65.0,-100.00,SSE,165,14.0,17.0,53,-99.99,,,-99.99,,2013-05-29 20:33:00,
2013-05-29 15:42:00,85.0,66.0,-100.00,South,170,9.0,12.0,53,-99.99,,,-99.99,,2013-05-29 20:42:00,
2013-05-29 15:53:00,85.0,66.0,-100.00,South,170,9.0,12.0,53,-99.99,,,-99.99,,2013-05-29 20:53:00,
2013-05-29 16:02:00,84.0,65.0,-100.00,South,170,14.0,21.0,53,-99.99,,,-99.99,,2013-05-29 21:02:00,
2013-05-29 16:12:00,84.0,65.0,-100.00,SE,145,12.0,16.0,54,-99.99,,,-99.99,,2013-05-29 21:12:00,
2013-05-29 16:22:00,84.0,65.0,-100.00,SE,145,12.0,16.0,54,-99.99,,,-99.99,,2013-05-29 21:22:00,
2013-05-29 16:33:00,85.0,65.0,-100.00,South,175,6.0,10.0,53,-99.99,,,-99.99,,2013-05-29 21:33:00,
2013-05-29 16:43:00,85.0,65.0,-100.00,SSE,155,6.0,11.0,51,-99.99,,,-99.99,,2013-05-29 21:43:00,
2013-05-29 16:53:00,85.0,65.0,-100.00,SSE,155,6.0,11.0,51,-99.99,,,-99.99,,2013-05-29 21:53:00,
2013-05-29 17:03:00,84.0,64.0,-100.00,SE,145,16.0,21.0,51,-99.99,,,-99.99,,2013-05-29 22:03:00,
2013-05-29 17:12:00,84.0,63.0,-100.00,SSE,150,19.0,25.0,50,-99.99,,,-99.99,,2013-05-29 22:12:00,
2013-05-29 17:23:00,84.0,63.0,-100.00,SSE,150,19.0,25.0,50,-99.99,,,-99.99,,2013-05-29 22:23:00,
2013-05-29 17:33:00,84.0,63.0,-100.00,SSE,155,16.0,18.0,50,-99.99,,,-99.99,,2013-05-29 22:33:00,
2013-05-29 17:42:00,84.0,63.0,-100.00,SSE,150,8.0,10.0,49,-99.99,,,-99.99,,2013-05-29 22:42:00,
2013-05-29 17:53:00,84.0,63.0,-100.00,SSE,150,8.0,10.0,49,-99.99,,,-99.99,,2013-05-29 22:53:00,
2013-05-29 18:02:00,84.0,63.0,-100.00,SSE,155,6.0,10.0,49,-99.99,,,-99.99,,2013-05-29 23:02:00,
2013-05-29 18:12:00,84.0,63.0,-100.00,South,180,12.0,18.0,49,-99.99,,,-99.99,,2013-05-29 23:12:00,
2013-05-29 18:22:00,84.0,63.0,-100.00,South,180,12.0,18.0,49,-99.99,,,-99.99,,2013-05-29 23:22:00,
2013-05-29 18:33:00,83.0,62.0,-100.00,SSE,160,16.0,21.0,50,-99.99,,,-99.99,,2013-05-29 23:33:00,
2013-05-29 18:42:00,83.0,63.0,-100.00,SE,145,6.0,9.0,51,-99.99,,,-99.99,,2013-05-29 23:42:00,
2013-05-29 18:53:00,83.0,63.0,-100.00,SE,145,6.0,9.0,51,-99.99,,,-99.99,,2013-05-29 23:53:00,
2013-05-29 19:01:00,83.0,63.0,-100.00,SSE,155,11.0,16.0,51,-99.99,,,-99.99,,2013-05-30 00:01:00,
2013-05-29 19:11:00,83.0,63.0,-100.00,SSE,160,11.0,14.0,51,-99.99,,,-99.99,,2013-05-30 00:11:00,
2013-05-29 19:21:00,83.0,63.0,-100.00,SSE,160,11.0,14.0,51,-99.99,,,-99.99,,2013-05-30 00:21:00,
2013-05-29 19:31:00,83.0,63.0,-100.00,SSE,160,11.0,14.0,51,-99.99,,,-99.99,,2013-05-30 00:31:00,
2013-05-29 19:42:00,82.0,62.0,-100.00,SSE,165,4.0,8.0,52,-99.99,,,-99.99,,2013-05-30 00:42:00,
2013-05-29 19:52:00,82.0,62.0,-100.00,SSE,165,4.0,8.0,52,-99.99,,,-99.99,,2013-05-30 00:52:00,
2013-05-29 20:01:00,82.0,62.0,-100.00,SE,145,6.0,9.0,52,-99.99,,,-99.99,,2013-05-30 01:01:00,
2013-05-29 20:11:00,81.0,62.0,-100.00,SE,145,9.0,14.0,52,-99.99,,,-99.99,,2013-05-30 01:11:00,
2013-05-29 20:21:00,81.0,62.0,-100.00,SE,145,9.0,14.0,52,-99.99,,,-99.99,,2013-05-30 01:21:00,
2013-05-29 20:32:00,81.0,61.0,-100.00,SSE,165,9.0,11.0,51,-99.99,,,-99.99,,2013-05-30 01:32:00,
2013-05-29 20:41:00,79.0,61.0,-100.00,SE,145,4.0,6.0,53,-99.99,,,-99.99,,2013-05-30 01:41:00,
2013-05-29 20:52:00,79.0,61.0,-100.00,SE,145,4.0,6.0,53,-99.99,,,-99.99,,2013-05-30 01:52:00,
2013-05-29 21:01:00,79.0,61.0,-100.00,SE,135,6.0,9.0,55,-99.99,,,-99.99,,2013-05-30 02:01:00,
2013-05-29 21:11:00,79.0,61.0,-100.00,SE,140,8.0,12.0,55,-99.99,,,-99.99,,2013-05-30 02:11:00,
2013-05-29 21:21:00,79.0,61.0,-100.00,SE,140,8.0,12.0,55,-99.99,,,-99.99,,2013-05-30 02:21:00,
2013-05-29 21:32:00,79.0,62.0,-100.00,SSE,150,6.0,9.0,56,-99.99,,,-99.99,,2013-05-30 02:32:00,
2013-05-29 21:42:00,79.0,62.0,-100.00,SSE,150,6.0,9.0,56,-99.99,,,-99.99,,2013-05-30 02:42:00,
2013-05-29 21:52:00,79.0,62.0,-100.00,SSE,150,6.0,9.0,56,-99.99,,,-99.99,,2013-05-30 02:52:00,
2013-05-29 22:02:00,79.0,60.0,-100.00,SSE,160,6.0,12.0,54,-99.99,,,-99.99,,2013-05-30 03:02:00,
2013-05-29 22:11:00,78.0,60.0,-100.00,SSE,165,6.0,10.0,54,-99.99,,,-99.99,,2013-05-30 03:11:00,
2013-05-29 22:21:00,78.0,60.0,-100.00,SSE,165,6.0,10.0,54,-99.99,,,-99.99,,2013-05-30 03:21:00,
2013-05-29 22:33:00,77.0,59.0,-100.00,SE,140,4.0,4.0,54,-99.99,,,-99.99,,2013-05-30 03:33:00,
2013-05-29 22:43:00,77.0,60.0,-100.00,SE,135,4.0,8.0,56,-99.99,,,-99.99,,2013-05-30 03:43:00,
2013-05-29 22:53:00,77.0,60.0,-100.00,SE,135,4.0,8.0,56,-99.99,,,-99.99,,2013-05-30 03:53:00,
2013-05-29 23:03:00,76.0,60.0,-100.00,SE,125,2.0,3.0,58,-99.99,,,-99.99,,2013-05-30 04:03:00,
2013-05-29 23:12:00,75.0,61.0,-100.00,East,80,2.0,2.0,61,-99.99,,,-99.99,,2013-05-30 04:12:00,
2013-05-29 23:23:00,75.0,61.0,-100.00,East,80,2.0,2.0,61,-99.99,,,-99.99,,2013-05-30 04:23:00,
2013-05-29 23:33:00,74.0,61.0,-100.00,East,90,2.0,3.0,64,-99.99,,,-99.99,,2013-05-30 04:33:00,
2013-05-29 23:42:00,74.0,62.0,-100.00,East,85,2.0,3.0,66,-99.99,,,-99.99,,2013-05-30 04:42:00,
2013-05-29 23:53:00,74.0,62.0,-100.00,East,85,2.0,3.0,66,-99.99,,,-99.99,,2013-05-30 04:53:00,